Regional Weather Roundup
Issued by NWS

Home | Current Version | Previous Version | Graphics & Text | Print | Product List | Glossary On
Versions: 1 2 3 4 5 6 7 8 9 10 11 12 13 14 15 16 17 18 19 20 21 22 23 24 25 26 27 28 29 30 31 32 33 34 35 36 37 38 39 40 41 42 43 44 45 46 47 48 49 50
168
ASUS44 KLIX 281305
RWRLA
LOUISIANA WEATHER ROUNDUP
NATIONAL WEATHER SERVICE NEW ORLEANS LA
700 AM CST SAT FEB 28 2015

NOTE: "FAIR" INDICATES FEW OR NO CLOUDS BELOW 12,000 FEET WITH NO
      SIGNIFICANT WEATHER AND/OR OBSTRUCTIONS TO VISIBILITY.
      SKY/WX - SKY CONDITION AND SIGNIFICANT WEATHER.
      TMP - AIR TEMPERATURE.    DP   - DEWPOINT TEMPERATURE.
      RH  - RELATIVE HUMIDITY.  PRES - PRESSURE.
      HX  - HEAT INDEX.         WCI  - WIND CHILL INDEX.

*  THESE STATIONS ARE NOT NWS OR FAA STATIONS AND ARE NOT UNDER
   NWS QUALITY CONTROL.

LAZ040-048-061>063-065-066-069-281400-
SOUTHEAST LOUISIANA

CITY           SKY/WX    TMP DP  RH WIND       PRES   REMARKS
N.O. AUDUBON     N/A     43  32  67 MISG        N/A
N.O. INTL ARPT MOCLDY    42  30  62 NE10      30.41R
N.O. LAKEFRONT PTCLDY    43  30  60 E17       30.42R
SLIDELL        MOCLDY    37  26  64 NE7       30.42R WCI  32
BATON ROUGE    CLOUDY    35  25  66 NE8       30.40R WCI  29
BOOTHVILLE     MOCLDY    50  43  77 NE13G20   30.37R
BELLE CHASSE   MOCLDY    42  29  59 NE9       30.40R
BOGALUSA*        N/A     34  27  75 N3        30.46S
GALLIANO*      PTSUNNY   46  38  72 MISG      30.38R
NEW ROADS*     PTSUNNY   36  25  64 E8        30.40S WCI  29
GONZALES*      FAIR      37  28  67 NE9       30.39S WCI  31
HAMMOND*       CLOUDY    36  25  64 E8        30.44R WCI  29
HOUMA*         MOCLDY    43  32  65 NE14      30.38R
PORT FOURCHON* CLOUDY    48  41  76 NE18      30.38S

$$

LAZ041-044-053-054-281400-
SOUTHWEST LOUISIANA

CITY           SKY/WX    TMP DP  RH WIND       PRES   REMARKS
LAKE CHARLES   CLOUDY    39  29  67 E12       30.35F WCI  32
LAFAYETTE      CLOUDY    37  28  70 NE7       30.37F WCI  32
PATTERSON      CLOUDY    39  30  70 NE10      30.38R WCI  32
SALT POINT       N/A     41  33  73 NE8       30.34R
NEW IBERIA     MOCLDY    38  28  67 E13G20    30.37S WCI  30
CHENAULT AIRPK CLOUDY    37  28  70 NE7       30.36F WCI  32

$$

LAZ027-028-281400-
CENTRAL LOUISIANA

CITY           SKY/WX    TMP DP  RH WIND       PRES   REMARKS
FORT POLK      CLOUDY    36  25  65 E8        30.36S WCI  29
ALEXANDRIA INT CLOUDY    34  26  72 N6        30.41R WCI  29
ALEXANDRIA     CLOUDY    35  26  69 NE3       30.42R

$$

LAZ001-002-281400-
NORTHWEST LOUISIANA

CITY           SKY/WX    TMP DP  RH WIND       PRES   REMARKS
SHREVEPORT     MOCLDY    31  22  69 NE10      30.42S WCI  22
BARKSDALE AFB  CLOUDY    30  21  70 VRB7      30.43S WCI  23
DTN SHREVEPORT CLOUDY    30  20  66 NE6       30.43S WCI  24

$$

LAZ014-016-281400-
NORTHEAST LOUISIANA

CITY           SKY/WX    TMP DP  RH WIND       PRES   REMARKS
MONROE         CLEAR     30  26  85 N6        30.49R WCI  24
TALLULAH       CLEAR     32  27  81 N8        30.45S WCI  25

$$




USA.gov is the U.S. government's official web portal to all federal, state and local government web resources and services.